FW4292 Weather Reports


Display with metric or nautical units.
time (UTC)temp
F
wind
direction
speed
MPH
gust
MPH
rain 1hr
in
rain 24hr
in
rain mn
in
humidity
%
barometer
mb
20260504171536 58 223 5.0 17.0 0.00 0.00 0.00 46 1007.9
20260504081517 41 238 2.0 5.0 0.00 0.01 0.00 65 1010.2
20260504044553 36 202 2.0 4.0 0.00 0.01 0.00 64 1010.1
20260504043049 36 191 1.0 2.0 0.00 0.01 0.00 64 1010.2
20260504041546 37 191 0.0 2.0 0.00 0.01 0.00 61 1010.1
20260504040046 38 190 1.0 3.0 0.00 0.01 0.00 60 1010.1
20260504034542 38 5 1.0 2.0 0.00 0.01 0.01 59 1010.0
20260504033050 38 5 0.0 3.0 0.00 0.01 0.01 57 1010.1
20260504031542 39 360 1.0 3.0 0.00 0.01 0.01 56 1010.1
20260504030041 39 9 2.0 3.0 0.00 0.01 0.01 56 1010.0
20260504024554 39 360 2.0 3.0 0.00 0.01 0.01 56 1010.1
20260504023044 39 360 1.0 8.0 0.00 0.01 0.01 57 1010.2
20260504021548 40 329 2.0 3.0 0.00 0.01 0.01 56 1010.2
20260504020046 40 329 0.0 2.0 0.00 0.01 0.01 54 1010.2
20260504014538 40 329 0.0 3.0 0.00 0.06 0.01 54 1010.1
20260504013045 40 252 0.0 3.0 0.00 0.06 0.01 56 1010.1
20260504011540 40 248 0.0 2.0 0.00 0.06 0.01 55 1009.9
20260504010037 40 249 1.0 2.0 0.00 0.06 0.01 56 1009.9
20260504004543 41 248 0.0 0.0 0.00 0.06 0.01 54 1009.8
20260504003035 42 247 0.0 1.0 0.00 0.06 0.01 53 1009.7
20260504001535 43 247 1.0 3.0 0.00 0.06 0.01 51 1009.5
20260504000034 43 242 0.0 5.0 0.00 0.06 0.01 50 1009.4
20260503234534 44 302 2.0 7.0 0.00 0.07 0.01 49 1009.1
20260503233034 44 284 1.0 6.0 0.00 0.07 0.01 52 1009.0
20260503231532 44 260 1.0 7.0 0.00 0.07 0.01 50 1008.9
20260503230032 45 205 2.0 8.0 0.00 0.07 0.01 49 1008.7
20260503224531 45 205 2.0 10.0 0.00 0.07 0.01 48 1008.7
20260503223031 46 167 6.0 12.0 0.00 0.07 0.01 46 1008.6
20260503221530 46 222 6.0 18.0 0.00 0.07 0.01 44 1008.4
20260503220034 46 239 3.0 16.0 0.00 0.07 0.01 47 1008.5
20260503214529 46 165 4.0 11.0 0.00 0.08 0.01 47 1008.4
20260503213029 47 59 5.0 13.0 0.00 0.08 0.01 45 1008.5
20260503211536 46 288 4.0 24.0 0.00 0.08 0.01 46 1008.5
20260503210031 46 175 3.0 17.0 0.00 0.08 0.01 45 1008.3
20260503204525 47 56 5.0 13.0 0.00 0.19 0.01 44 1008.3
20260503203026 47 67 4.0 11.0 0.00 0.19 0.01 46 1008.2
20260503201526 47 298 3.0 10.0 0.00 0.19 0.01 44 1008.1
20260503200025 48 150 4.0 12.0 0.00 0.19 0.01 45 1008.0
20260503194522 47 175 5.0 13.0 0.00 0.19 0.01 48 1008.1
20260503193034 47 30 3.0 14.0 0.00 0.19 0.01 45 1008.3
20260503191520 46 123 2.0 13.0 0.00 0.19 0.01 45 1008.0
20260503190029 48 11 5.0 19.0 0.00 0.19 0.01 46 1008.1
20260503184519 48 65 4.0 12.0 0.00 0.20 0.01 49 1008.1
20260503183017 47 9 5.0 14.0 0.00 0.20 0.01 49 1008.1
20260503181518 47 12 7.0 18.0 0.00 0.20 0.01 50 1008.1
20260503180016 47 263 4.0 17.0 0.00 0.20 0.01 51 1008.0
20260503174514 47 303 4.0 15.0 0.00 0.20 0.01 55 1008.0
20260503173018 47 155 2.0 11.0 0.00 0.20 0.01 54 1008.1